Data for 10/06/2013

Time Sea-Level Adjusted Pressure Absolute Pressure Temperature Relative Humidity Dew Point   
(mb) (inHg) (mb) (inHg) (C) (F) (%) (C) (F)
12:10 1025 30.27 854 25.22 14.1 57.3 41 1.1 34
12:15 1025 30.27 854 25.22 14.6 58.3 39 0.9 33.6
12:20 1025 30.27 854 25.22 14.7 58.5 39 1 33.8
12:25 1025 30.27 854 25.22 14.7 58.5 39 1.1 34
12:30 1025 30.27 854 25.22 15.3 59.5 38 1 33.8
12:35 1025 30.27 854 25.22 15.3 59.5 37 1 33.7
12:40 1025 30.27 854 25.22 14.5 58.2 40 1.2 34.1
12:45 1025 30.27 854 25.22 15.4 59.7 36 0.3 32.6
12:50 1024 30.24 854 25.22 15.5 59.8 36 0.5 32.9
12:55 1024 30.24 854 25.22 16.1 60.9 36 1.1 33.9
13:00 1024 30.24 853 25.19 16.5 61.8 33 0.2 32.3
13:05 1024 30.24 853 25.19 16.6 61.8 34 0.6 33.1
13:10 1024 30.24 853 25.19 16.8 62.2 34 1.1 34
13:15 1024 30.24 853 25.19 16.8 62.2 33 0.6 33.2
13:20 1024 30.24 853 25.19 16.5 61.7 34 0.7 33.2
13:25 1024 30.24 853 25.19 16.9 62.4 34 0.9 33.7
13:30 1024 30.24 853 25.19 16.9 62.3 31 -0.4 31.3
13:35 1024 30.24 853 25.19 17.3 63.2 30 -0.1 31.8
13:40 1024 30.24 853 25.19 17.3 63.2 30 -0.1 31.8
13:45 1024 30.24 853 25.19 17.7 63.8 29 -0.4 31.3
13:50 1024 30.24 853 25.19 17.9 64.1 31 0.8 33.4
13:55 1024 30.24 853 25.19 17.2 63 31 0.1 32.2
14:00 1024 30.24 853 25.19 16.5 61.7 32 -0.2 31.7
14:05 1023 30.21 853 25.19 17.5 63.6 30 0.1 32.2
14:10 1023 30.21 853 25.19 17.9 64.3 30 0.2 32.3
14:15 1023 30.21 853 25.19 18.3 64.9 28 -0.4 31.2
14:20 1023 30.21 853 25.19 18.3 65 28 -0.4 31.2
14:25 1023 30.21 853 25.19 18.4 65.2 27 -0.8 30.6
14:30 1023 30.21 853 25.19 17.8 64 30 0.1 32.1
14:35 1023 30.21 852 25.16 17.4 63.3 30 -0.2 31.6
14:40 1023 30.21 852 25.16 17.5 63.4 29 -0.5 31.2
14:45 1023 30.21 852 25.16 17.3 63.2 29 -0.9 30.4
14:50 1023 30.21 852 25.16 18 64.5 27 -1.3 29.7
14:55 1023 30.21 852 25.16 17.8 64 28 -1.1 30.1
15:00 1023 30.21 852 25.16 18.9 65.9 26 -1.1 30.1
15:05 1023 30.21 852 25.16 19.1 66.3 26 -0.7 30.8
15:10 1023 30.21 852 25.16 19.1 66.3 26 -0.6 30.9
15:15 1023 30.21 852 25.16 19.2 66.5 26 -0.5 31
15:20 1023 30.21 852 25.16 19.2 66.5 27 -0.1 31.8
15:25 1023 30.21 852 25.16 19.1 66.4 26 -0.8 30.6
15:30 1023 30.21 852 25.16 18.9 66.1 25 -1.5 29.4
15:35 1023 30.21 852 25.16 19 66.2 25 -1.2 29.8
15:40 1023 30.21 852 25.16 19.2 66.5 25 -1.3 29.7
15:45 1023 30.21 852 25.16 19 66.3 25 -1.3 29.6
15:50 1023 30.21 852 25.16 19.1 66.3 25 -1.1 30
15:55 1023 30.21 852 25.16 18.9 66 26 -1.1 30
16:00 1023 30.21 852 25.16 18.5 65.3 27 -0.6 31
16:05 1023 30.21 852 25.16 18.5 65.2 27 -0.8 30.6
16:10 1023 30.21 852 25.16 18.6 65.5 27 -0.7 30.8
16:15 1023 30.21 852 25.16 18.7 65.6 26 -1 30.1
16:20 1023 30.21 852 25.16 18.8 65.8 26 -0.9 30.5
16:25 1023 30.21 852 25.16 18.8 65.8 26 -1.1 30
16:30 1023 30.21 852 25.16 18.9 66 26 -1.1 29.9
16:35 1023 30.21 852 25.16 18.8 65.8 26 -1 30.2
16:40 1023 30.21 852 25.16 18.5 65.3 26 -1.3 29.7
16:45 1023 30.21 852 25.16 18.5 65.3 26 -1.3 29.6
16:50 1023 30.21 852 25.16 18.1 64.6 26 -1.4 29.4
16:55 1023 30.21 852 25.16 18.2 64.7 26 -1.4 29.5
17:00 1023 30.21 852 25.16 18.1 64.7 28 -0.8 30.6
00:05 1020 30.12 849 25.07 8.5 47.3 37 -5.5 22.1
00:10 1020 30.12 849 25.07 8.7 47.6 36 -5.6 21.8
00:15 1020 30.12 849 25.07 8.5 47.2 39 -4.7 23.5
00:20 1020 30.12 849 25.07 7.8 46 39 -5.3 22.4
00:25 1020 30.12 849 25.07 7.7 45.8 39 -5.6 22
00:30 1020 30.12 849 25.07 7.2 44.9 42 -4.8 23.4
00:35 1019 30.09 849 25.07 6.2 43.2 44 -5 23
00:40 1019 30.09 849 25.07 5.9 42.7 46 -4.9 23.3
00:45 1019 30.09 849 25.07 6.1 43.1 42 -5.9 21.4
00:50 1019 30.09 849 25.07 6.8 44.3 41 -5.7 21.8
00:55 1019 30.09 849 25.07 7.5 45.5 37 -6.2 20.8
01:00 1019 30.09 849 25.07 8 46.4 36 -6 21.2
01:05 1019 30.09 849 25.07 8.1 46.6 37 -5.8 21.6
01:10 1019 30.09 849 25.07 7.8 46.1 39 -5.2 22.6
01:15 1019 30.09 848 25.04 7.1 44.9 39 -6 21.2
01:20 1019 30.09 848 25.04 7.6 45.7 36 -6.4 20.6
01:25 1019 30.09 848 25.04 8.1 46.5 38 -5.5 22.1
01:30 1019 30.09 848 25.04 7.8 46 37 -6.1 21
01:35 1019 30.09 848 25.04 8.3 46.9 36 -5.8 21.5
01:40 1019 30.09 848 25.04 7.9 46.3 39 -5.2 22.7
01:45 1019 30.09 848 25.04 7.5 45.5 39 -5.6 21.9
01:50 1019 30.09 848 25.04 6.9 44.4 43 -4.8 23.3
01:55 1019 30.09 848 25.04 5.9 42.7 44 -5.3 22.5
02:00 1019 30.09 848 25.04 6.2 43.1 41 -6 21.1
02:05 1019 30.09 848 25.04 6 42.8 46 -4.7 23.6
02:10 1019 30.09 848 25.04 5.7 42.3 40 -7 19.4
02:15 1019 30.09 848 25.04 6.1 43 44 -5.2 22.6
02:20 1019 30.09 848 25.04 5.7 42.3 43 -6 21.2
02:25 1019 30.09 848 25.04 6.3 43.4 40 -6.5 20.4
02:30 1019 30.09 848 25.04 6.4 43.4 42 -5.5 22.1
02:35 1019 30.09 848 25.04 5.6 42.1 47 -4.9 23.2
02:40 1019 30.09 848 25.04 5.6 42.1 42 -6.4 20.4
02:45 1019 30.09 848 25.04 6.9 44.4 36 -7.1 19.3
02:50 1018 30.06 848 25.04 7.6 45.7 38 -5.8 21.5
02:55 1018 30.06 848 25.04 7.1 44.8 39 -5.9 21.3
03:00 1018 30.06 848 25.04 6.5 43.7 41 -6 21.3
03:05 1018 30.06 847 25.01 6.2 43.1 42 -5.9 21.4
03:10 1018 30.06 847 25.01 6.1 42.9 41 -6.3 20.6
03:15 1018 30.06 847 25.01 6.1 43 44 -5.3 22.5
03:20 1018 30.06 847 25.01 5.6 42.1 42 -6.2 20.8
03:25 1018 30.06 847 25.01 6.8 44.2 40 -5.9 21.3
03:30 1018 30.06 847 25.01 6.5 43.6 42 -5.5 22
03:35 1018 30.06 847 25.01 6.3 43.3 42 -5.8 21.6
03:40 1018 30.06 847 25.01 6.4 43.4 39 -6.6 20.2
03:45 1018 30.06 847 25.01 6.9 44.5 40 -5.8 21.6
03:50 1018 30.06 847 25.01 6.6 43.9 43 -5 23.1
03:55 1018 30.06 847 25.01 5.5 41.8 48 -4.8 23.4
04:00 1018 30.06 847 25.01 4.6 40.3 50 -5 23.1
04:05 1018 30.06 847 25.01 4.2 39.6 53 -4.7 23.6
04:10 1018 30.06 847 25.01 3.8 38.9 54 -4.5 23.8
04:15 1018 30.06 847 25.01 4 39.2 52 -5 23
04:20 1018 30.06 847 25.01 4.1 39.5 54 -4.5 24
04:25 1018 30.06 847 25.01 3.5 38.2 60 -3.6 25.4
04:30 1018 30.06 847 25.01 2.2 36 60 -4.7 23.5
04:35 1018 30.06 847 25.01 3.7 38.7 48 -6.3 20.6
04:40 1018 30.06 847 25.01 5.1 41.1 47 -5.4 22.3
04:45 1018 30.06 847 25.01 5 41.1 46 -5.5 22.1
04:50 1018 30.06 847 25.01 5 41 47 -5.3 22.4
04:55 1018 30.06 847 25.01 5 40.9 48 -5.1 22.8
05:00 1018 30.06 847 25.01 4.8 40.7 47 -5.5 22.1
05:05 1018 30.06 847 25.01 5.2 41.3 45 -5.9 21.5
05:10 1018 30.06 847 25.01 5.4 41.7 46 -5.2 22.6
05:15 1018 30.06 847 25.01 5.5 41.9 46 -5.2 22.6
05:20 1017 30.03 847 25.01 5.2 41.4 49 -4.6 23.7
05:25 1017 30.03 847 25.01 4.5 40.1 50 -5.1 22.9
05:30 1017 30.03 847 25.01 4.6 40.3 51 -4.8 23.4
05:35 1017 30.03 846 24.98 4.7 40.4 46 -5.9 21.4
05:40 1017 30.03 846 24.98 5.7 42.2 46 -5 22.9
05:45 1017 30.03 846 24.98 5.4 41.7 48 -4.7 23.6
05:50 1017 30.03 846 24.98 5.4 41.7 47 -5.1 22.9
05:55 1017 30.03 846 24.98 5.5 42 48 -4.7 23.6
06:00 1017 30.03 846 24.98 5.2 41.4 48 -5 23
06:05 1017 30.03 846 24.98 5.4 41.8 45 -5.4 22.2
06:10 1017 30.03 846 24.98 5.9 42.6 45 -5.3 22.5
06:15 1017 30.03 846 24.98 5.7 42.2 45 -5.4 22.4
06:20 1017 30.03 846 24.98 5.4 41.6 46 -5.4 22.3
06:25 1017 30.03 846 24.98 4.9 40.8 50 -4.6 23.8
06:30 1017 30.03 846 24.98 4 39.3 52 -4.9 23.1
06:35 1017 30.03 846 24.98 4.3 39.7 48 -5.7 21.7
06:40 1017 30.03 846 24.98 5.2 41.4 44 -6.2 20.9
06:45 1017 30.03 846 24.98 5.9 42.6 43 -5.6 21.9
06:50 1017 30.03 846 24.98 5.6 42 47 -5 23
06:55 1017 30.03 846 24.98 5.2 41.3 48 -4.9 23.2
07:00 1017 30.03 846 24.98 4.5 40.1 52 -4.5 23.8
07:05 1016 30 846 24.98 3.9 39 53 -4.9 23.2
07:10 1016 30 846 24.98 3.9 39.1 52 -5.1 22.9
07:15 1016 30 846 24.98 4.4 39.8 51 -4.9 23.3
07:20 1016 30 846 24.98 5.2 41.3 48 -5 22.9
07:25 1016 30 845 24.95 5.6 42.1 48 -4.6 23.7
07:30 1016 30 845 24.95 5.6 42 49 -4.4 24.2
07:35 1016 30 846 24.98 6 42.9 46 -4.6 23.6
07:40 1016 30 846 24.98 6.5 43.8 45 -4.5 23.9
07:45 1016 30 846 24.98 6.5 43.7 48 -3.8 25.1
07:50 1016 30 845 24.95 6.1 43 49 -3.7 25.3
07:55 1016 30 846 24.98 6 42.9 48 -4.1 24.7
00:05 1027 30.33 856 25.28 4 39.1 73 -0.5 31.2
00:10 1027 30.33 856 25.28 4.2 39.6 72 -0.3 31.5
00:15 1027 30.33 856 25.28 4.1 39.4 73 -0.4 31.3
00:20 1027 30.33 856 25.28 4.1 39.4 71 -0.6 30.9
00:25 1027 30.33 857 25.31 4.3 39.7 71 -0.6 30.9
00:30 1027 30.33 857 25.31 4.2 39.5 71 -0.6 31
00:35 1027 30.33 857 25.31 4.1 39.4 72 -0.4 31.3
00:40 1027 30.33 857 25.31 3.9 38.9 73 -0.5 31.1
00:45 1027 30.33 857 25.31 4 39.2 71 -0.7 30.7
00:50 1027 30.33 857 25.31 4 39.2 74 -0.3 31.5
00:55 1027 30.33 857 25.31 3.7 38.7 75 -0.4 31.3
01:00 1028 30.36 857 25.31 3.4 38.1 75 -0.5 31
01:05 1028 30.36 857 25.31 3.7 38.7 72 -0.9 30.4
01:10 1028 30.36 857 25.31 4 39.3 72 -0.6 31
01:15 1027 30.33 857 25.31 3.6 38.4 76 -0.4 31.4
01:20 1027 30.33 857 25.31 3.4 38 75 -0.6 30.9
01:25 1027 30.33 856 25.28 3.8 38.9 73 -0.7 30.8
01:30 1027 30.33 856 25.28 3.7 38.6 75 -0.4 31.3
01:35 1027 30.33 856 25.28 2.9 37.2 78 -0.5 31.1
01:40 1027 30.33 856 25.28 2.6 36.6 79 -0.6 30.8
01:45 1027 30.33 856 25.28 2.6 36.8 79 -0.7 30.8
01:50 1027 30.33 856 25.28 2.7 36.9 79 -0.5 31
01:55 1027 30.33 857 25.31 2.4 36.3 80 -0.7 30.7
02:00 1027 30.33 856 25.28 2.7 36.9 77 -0.9 30.4
02:05 1027 30.33 856 25.28 3 37.3 77 -0.6 30.9
02:10 1027 30.33 856 25.28 2.8 37 78 -0.7 30.7
02:15 1027 30.33 856 25.28 2.8 37 78 -0.6 30.9
02:20 1027 30.33 856 25.28 2.8 37 78 -0.7 30.8
02:25 1027 30.33 856 25.28 2.8 37.1 78 -0.6 30.9
02:30 1027 30.33 856 25.28 2.9 37.1 78 -0.7 30.8
02:35 1027 30.33 856 25.28 2.8 37.1 78 -0.7 30.8
02:40 1027 30.33 856 25.28 3 37.3 76 -0.8 30.6
02:45 1027 30.33 856 25.28 2.8 37.1 77 -0.8 30.6
02:50 1027 30.33 856 25.28 2.7 36.8 77 -0.9 30.4
02:55 1027 30.33 856 25.28 2.7 36.8 77 -0.9 30.4
03:00 1027 30.33 856 25.28 2.6 36.7 77 -1.1 30
03:05 1027 30.33 856 25.28 2.7 36.9 77 -1 30.3
03:10 1027 30.33 856 25.28 2.9 37.2 76 -0.9 30.4
03:15 1027 30.33 856 25.28 3.1 37.5 76 -0.8 30.5
03:20 1027 30.33 856 25.28 3.2 37.7 75 -0.8 30.5
03:25 1027 30.33 856 25.28 3.2 37.8 74 -0.9 30.4
03:30 1027 30.33 856 25.28 3.2 37.8 76 -0.7 30.8
03:35 1027 30.33 856 25.28 3.1 37.5 76 -0.8 30.6
03:40 1027 30.33 856 25.28 2.9 37.3 76 -0.8 30.5
03:45 1027 30.33 856 25.28 2.6 36.7 78 -0.9 30.4
03:50 1027 30.33 856 25.28 2.4 36.3 79 -0.9 30.3
03:55 1027 30.33 856 25.28 2.5 36.4 77 -1.1 30
04:00 1027 30.33 856 25.28 2.5 36.5 77 -1.2 29.9
04:05 1027 30.33 856 25.28 2.6 36.6 76 -1.3 29.7
04:10 1027 30.33 856 25.28 3 37.3 74 -1.3 29.7
04:15 1027 30.33 856 25.28 3.4 38.1 73 -1.1 30.1
04:20 1027 30.33 856 25.28 3.3 37.9 72 -1.2 29.8
04:25 1027 30.33 856 25.28 3.3 37.9 73 -1.1 30
04:30 1027 30.33 856 25.28 3.3 38 73 -1.1 30.1
04:35 1027 30.33 856 25.28 3.7 38.7 70 -1.2 29.8
04:40 1027 30.33 856 25.28 3.5 38.2 73 -1 30.2
04:45 1027 30.33 856 25.28 2.9 37.3 75 -1.1 30
04:50 1027 30.33 856 25.28 3 37.5 73 -1.3 29.6
04:55 1027 30.33 856 25.28 3.5 38.3 72 -1.1 30
05:00 1027 30.33 856 25.28 3.5 38.4 72 -1.1 30
05:05 1027 30.33 856 25.28 3.5 38.3 72 -1 30.2
05:10 1027 30.33 856 25.28 3.1 37.7 74 -1.1 30
05:15 1027 30.33 856 25.28 2.8 37 75 -1.2 29.8
05:20 1027 30.33 856 25.28 2.6 36.7 75 -1.4 29.5
05:25 1027 30.33 856 25.28 2.3 36.1 79 -1 30.1
05:30 1027 30.33 856 25.28 2 35.5 79 -1.3 29.6
05:35 1027 30.33 856 25.28 2.2 35.9 77 -1.4 29.5
05:40 1027 30.33 856 25.28 2.3 36.1 77 -1.4 29.5
05:45 1027 30.33 856 25.28 2.2 36 75 -1.7 29
05:50 1027 30.33 856 25.28 2.4 36.4 76 -1.3 29.7
05:55 1027 30.33 856 25.28 2.6 36.7 76 -1.2 29.8
06:00 1027 30.33 856 25.28 2.7 36.9 75 -1.2 29.8
06:05 1027 30.33 856 25.28 2.3 36.1 77 -1.3 29.7
06:10 1027 30.33 856 25.28 2.2 35.9 77 -1.4 29.5
06:15 1027 30.33 856 25.28 2.2 36 77 -1.5 29.3
06:20 1027 30.33 856 25.28 2.2 35.9 77 -1.4 29.4
06:25 1027 30.33 856 25.28 2 35.6 78 -1.5 29.3
06:30 1026 30.3 856 25.28 2.2 36 77 -1.4 29.5
06:35 1026 30.3 856 25.28 2.6 36.8 74 -1.5 29.3
06:40 1026 30.3 856 25.28 2.7 36.9 76 -1 30.1
06:45 1026 30.3 856 25.28 2.7 36.8 76 -1.2 29.9
06:50 1026 30.3 856 25.28 2.4 36.3 76 -1.4 29.5
06:55 1026 30.3 856 25.28 1.3 34.4 82 -1.5 29.4
07:00 1026 30.3 856 25.28 0.7 33.3 82 -2 28.3
07:05 1026 30.3 856 25.28 1.4 34.4 80 -1.8 28.8
07:10 1026 30.3 856 25.28 1.5 34.8 79 -1.7 29
07:15 1026 30.3 856 25.28 1.7 35.1 78 -1.7 28.9
07:20 1027 30.33 856 25.28 2 35.7 76 -1.7 28.9
07:25 1027 30.33 856 25.28 2.5 36.4 75 -1.6 29.1
07:30 1027 30.33 856 25.28 2.9 37.2 72 -1.6 29.2
07:35 1027 30.33 856 25.28 3.4 38.2 71 -1.4 29.5
07:40 1027 30.33 856 25.28 3.7 38.6 70 -1.3 29.6
07:45 1027 30.33 856 25.28 4.1 39.4 68 -1.2 29.8
07:50 1027 30.33 856 25.28 4.4 40 68 -1 30.2
07:55 1027 30.33 856 25.28 4.9 40.8 66 -1 30.2
08:00 1027 30.33 856 25.28 5 41.1 65 -0.9 30.4
08:05 1027 30.33 856 25.28 5.3 41.6 64 -1 30.2
08:10 1027 30.33 856 25.28 5.9 42.6 63 -0.5 31.1
08:15 1027 30.33 856 25.28 6.2 43.2 61 -0.7 30.8
08:20 1027 30.33 856 25.28 6.2 43.2 62 -0.4 31.2
08:25 1027 30.33 856 25.28 6.9 44.5 59 -0.5 31.1
08:30 1027 30.33 856 25.28 7 44.6 59 -0.4 31.2
08:35 1027 30.33 856 25.28 7.4 45.3 58 -0.4 31.3
08:40 1027 30.33 856 25.28 8.5 47.3 53 -0.4 31.3
08:45 1027 30.33 856 25.28 9.2 48.5 51 -0.3 31.5
08:50 1027 30.33 856 25.28 9.4 48.9 51 -0.3 31.5
08:55 1027 30.33 856 25.28 9.4 48.9 50 -0.5 31.1
09:00 1027 30.33 856 25.28 9.4 48.8 52 -0 31.9
09:05 1027 30.33 856 25.28 9.5 49 50 -0.3 31.5
09:10 1027 30.33 856 25.28 9.3 48.7 52 -0.1 31.9
09:15 1027 30.33 856 25.28 9.6 49.2 49 -0.7 30.8
09:20 1027 30.33 856 25.28 10.1 50.1 48 -0.3 31.5
09:25 1026 30.3 856 25.28 9.6 49.3 49 -0.5 31.2
09:30 1026 30.3 856 25.28 9.9 49.8 49 -0.3 31.5
09:35 1026 30.3 856 25.28 10.6 51 44 -1.2 29.8
09:40 1026 30.3 856 25.28 10.7 51.3 46 -0.5 31.1
09:45 1026 30.3 856 25.28 10.8 51.4 46 -0.3 31.5
09:50 1026 30.3 856 25.28 10.7 51.2 45 -0.8 30.5
09:55 1026 30.3 856 25.28 10.5 51 46 -0.5 31.1
10:00 1026 30.3 855 25.25 10.3 50.6 48 -0.2 31.6
10:05 1026 30.3 855 25.25 10.3 50.5 47 -0.6 30.9
10:10 1026 30.3 855 25.25 11.1 52 44 -0.6 31
10:15 1026 30.3 855 25.25 11.7 53 42 -0.7 30.8
10:20 1026 30.3 855 25.25 11.7 53.1 41 -0.9 30.3
10:25 1026 30.3 855 25.25 11.5 52.6 44 -0.3 31.5
10:30 1026 30.3 855 25.25 12 53.6 43 -0.3 31.4
10:35 1026 30.3 855 25.25 12.7 54.8 40 -0.4 31.4
10:40 1026 30.3 855 25.25 12.7 54.9 41 -0.1 31.8
10:45 1026 30.3 855 25.25 12.8 55.1 40 -0.3 31.5
10:50 1026 30.3 855 25.25 12.7 54.8 41 -0.1 31.9
10:55 1026 30.3 855 25.25 12.8 55 42 0.2 32.3
11:00 1026 30.3 855 25.25 13.1 55.6 39 -0.5 31.2
11:05 1026 30.3 855 25.25 13.3 56 39 -0.4 31.2
11:10 1026 30.3 855 25.25 13.6 56.5 38 -0.4 31.4
11:15 1026 30.3 855 25.25 13.7 56.6 39 0.1 32.2
11:20 1026 30.3 855 25.25 13.6 56.4 42 1 33.9
11:25 1026 30.3 855 25.25 13 55.3 44 0.9 33.7
11:30 1026 30.3 855 25.25 12.7 54.8 43 0.6 33
11:35 1026 30.3 855 25.25 14.1 57.3 41 1.1 34.1
11:40 1026 30.3 855 25.25 13.9 56.9 43 1.5 34.7
11:45 1025 30.27 855 25.25 14 57.3 40 0.8 33.5
11:50 1025 30.27 855 25.25 14.5 58 41 1.4 34.6
11:55 1025 30.27 854 25.22 14.4 57.9 41 1.2 34.2
12:00 1025 30.27 854 25.22 13.9 57.1 43 1.6 34.9
12:05 1025 30.27 854 25.22 13.5 56.3 41 0.5 33
12:10 1025 30.27 854 25.22 14.1 57.3 41 1.1 34
17:05 1023 30.21 852 25.16 17.6 63.7 28 -0.8 30.6
17:10 1022 30.18 852 25.16 17.3 63.2 29 -0.9 30.5
17:15 1022 30.18 852 25.16 17.1 62.9 30 -0.7 30.8
17:20 1022 30.18 852 25.16 17 62.6 30 -0.7 30.7
17:25 1022 30.18 852 25.16 16.9 62.4 30 -0.4 31.2
17:30 1022 30.18 852 25.16 16.6 61.8 32 -0.3 31.5
17:35 1022 30.18 851 25.13 16.3 61.3 32 -0.2 31.7
17:40 1022 30.18 851 25.13 16.1 61 32 -0.3 31.4
17:45 1022 30.18 851 25.13 16 60.8 36 0.8 33.5
17:50 1022 30.18 851 25.13 14.6 58.2 45 2.8 37
17:55 1022 30.18 851 25.13 13.4 56 49 2.9 37.2
18:00 1022 30.18 851 25.13 12.6 54.6 51 2.7 36.8
18:05 1022 30.18 851 25.13 12.1 53.8 52 2.5 36.6
18:10 1022 30.18 851 25.13 11.7 53.1 53 2.4 36.3
18:15 1022 30.18 851 25.13 11.4 52.6 53 2.2 36
18:20 1022 30.18 851 25.13 11.2 52.2 53 2.2 35.9
18:25 1022 30.18 851 25.13 10.6 51.1 57 2.6 36.7
18:30 1022 30.18 851 25.13 10 50 60 2.6 36.7
18:35 1022 30.18 851 25.13 9.8 49.6 59 2.3 36.2
18:40 1022 30.18 851 25.13 9.9 49.7 58 2 35.6
18:45 1022 30.18 851 25.13 9.9 49.7 56 1.5 34.7
18:50 1022 30.18 851 25.13 10.4 50.7 56 2 35.6
18:55 1022 30.18 851 25.13 10.2 50.3 57 2 35.6
19:00 1022 30.18 851 25.13 9.5 49.1 62 2.6 36.7
19:05 1022 30.18 851 25.13 8.7 47.7 63 2.1 35.8
19:10 1022 30.18 851 25.13 8.3 46.9 64 1.8 35.3
19:15 1022 30.18 851 25.13 8.3 47 63 1.7 35.1
19:20 1022 30.18 851 25.13 8.1 46.6 65 1.9 35.4
19:25 1022 30.18 851 25.13 7.9 46.2 63 1.3 34.3
19:30 1022 30.18 851 25.13 8 46.3 59 0.5 32.9
19:35 1022 30.18 851 25.13 8.5 47.3 58 0.7 33.3
19:40 1022 30.18 851 25.13 8.5 47.2 57 0.4 32.8
19:45 1022 30.18 851 25.13 8.5 47.3 56 0.3 32.5
19:50 1022 30.18 851 25.13 8.4 47.1 56 0.2 32.4
19:55 1022 30.18 851 25.13 8.2 46.7 57 0.3 32.5
20:00 1022 30.18 851 25.13 7.9 46.3 57 -0 32
20:05 1022 30.18 851 25.13 8 46.4 57 0 32
20:10 1022 30.18 851 25.13 8 46.4 56 -0.1 31.8
20:15 1022 30.18 851 25.13 7.8 46.1 57 -0.2 31.6
20:20 1022 30.18 851 25.13 7.8 46.1 56 -0.5 31.2
20:25 1022 30.18 851 25.13 7.8 46.1 55 -0.7 30.7
20:30 1021 30.15 851 25.13 7.9 46.3 53 -1 30.1
20:35 1021 30.15 851 25.13 8.2 46.7 53 -0.9 30.4
20:40 1021 30.15 851 25.13 8.1 46.6 53 -0.8 30.6
20:45 1021 30.15 851 25.13 8.1 46.6 52 -1.1 30
20:50 1021 30.15 850 25.1 8.2 46.7 51 -1.2 29.8
20:55 1021 30.15 850 25.1 8.4 47.1 50 -1.5 29.4
21:00 1021 30.15 850 25.1 8.5 47.3 50 -1.2 29.8
21:05 1021 30.15 850 25.1 8.4 47 50 -1.4 29.4
21:10 1021 30.15 850 25.1 8.1 46.6 50 -1.6 29.2
21:15 1021 30.15 850 25.1 8 46.4 51 -1.6 29.1
21:20 1021 30.15 850 25.1 7.9 46.2 50 -1.7 28.9
21:25 1021 30.15 850 25.1 7.8 46.1 51 -1.7 29
21:30 1021 30.15 850 25.1 7.6 45.7 51 -1.9 28.7
21:35 1021 30.15 850 25.1 7.7 45.8 50 -2.1 28.3
21:40 1021 30.15 850 25.1 7.7 45.9 49 -2.2 28.1
21:45 1021 30.15 850 25.1 7.9 46.1 48 -2.5 27.6
21:50 1021 30.15 850 25.1 8 46.4 48 -2.4 27.6
21:55 1021 30.15 850 25.1 8 46.5 47 -2.4 27.6
22:00 1021 30.15 850 25.1 7.9 46.3 47 -2.6 27.4
22:05 1021 30.15 850 25.1 7.8 46 49 -2.4 27.7
22:10 1020 30.12 850 25.1 7.8 46 46 -3.1 26.4
22:15 1020 30.12 850 25.1 7.8 46.1 47 -2.8 26.9
22:20 1020 30.12 850 25.1 7.8 46.1 46 -3.2 26.3
22:25 1020 30.12 850 25.1 7.9 46.1 45 -3.4 25.8
22:30 1020 30.12 849 25.07 8.1 46.5 44 -3.4 25.9
22:35 1020 30.12 849 25.07 7.8 46.1 45 -3.2 26.2
22:40 1020 30.12 849 25.07 7.5 45.5 46 -3.4 25.8
22:45 1020 30.12 849 25.07 7.5 45.5 45 -3.7 25.3
22:50 1020 30.12 849 25.07 7.9 46.1 41 -4.6 23.7
22:55 1020 30.12 849 25.07 8.7 47.7 36 -5.6 21.9
23:00 1020 30.12 849 25.07 9.6 49.3 35 -5 23.1
23:05 1020 30.12 849 25.07 9.6 49.2 37 -4.5 23.8
23:10 1020 30.12 849 25.07 9.4 48.9 36 -4.9 23.1
23:15 1020 30.12 849 25.07 9.6 49.2 36 -4.9 23.2
23:20 1020 30.12 849 25.07 9.6 49.3 35 -5.2 22.6
23:25 1020 30.12 849 25.07 9.4 48.8 37 -4.5 24
23:30 1020 30.12 849 25.07 8.9 48.1 38 -4.7 23.5
23:35 1020 30.12 849 25.07 8.9 48.1 36 -5.3 22.5
23:40 1020 30.12 849 25.07 8.9 48.1 37 -4.8 23.4
23:45 1020 30.12 849 25.07 8.8 47.8 37 -5 23
23:50 1020 30.12 849 25.07 8.7 47.6 38 -4.7 23.5
23:55 1020 30.12 849 25.07 8.4 47.1 39 -4.7 23.5
24:00 1020 30.12 849 25.07 8.2 46.8 38 -5.2 22.7